Location: Aufkirchen
(47.9603°N, 11.3653°E)
Time: 07:35:04
(UTC+01:00)

Transit 4A - Pass Details

Date: 29 November 2020
Orbit: 864 x 980 km, 66.8° (Epoch: 25 January)

Event Time Altitude Azimuth Distance (km) Brightness Sun altitude
Rises 16:03:37 0° 325° (NW) 3,688 11.0 2.1°
Reaches altitude 10° 16:06:16 10° 329° (NNW) 2,731 10.3 1.7°
Maximum altitude 16:12:36 62° 50° (NE) 1,081 8.1 0.9°
Drops below altitude 10° 16:18:45 10° 131° (SE) 2,658 10.2 0.0°
Sets 16:21:17 0° 135° (SE) 3,582 10.8 -0.4°
